Louisa, VA

5:18 PM EST on February 22, 2017 (GMT -0500)
Louisa County-Freeman

Weather History for KLKU - August, 2014

Change the Weather History Date:

Sunday, August 10, 2014

  Actual Average (KOMH) Record (KOMH)
Temperature  
Mean Temperature 70 °F -  
Max Temperature 84 °F 86 °F 99 °F (1987)
Min Temperature 55 °F 65 °F 53 °F (1972)
Cooling Degree Days 4    
Growing Degree Days 20 (Base 50)    
Moisture  
Dew Point 61 °F    
Average Humidity 78    
Maximum Humidity 100    
Minimum Humidity 45    
Precipitation  
Precipitation 0.00 in - - ()
Sea Level Pressure  
Sea Level Pressure 30.12 in    
Wind  
Wind Speed 1 mph (SE)    
Max Wind Speed 7 mph    
Max Gust Speed -    
Visibility 7 miles    
Events Fog    
Averages and records for this station are not official NWS values.
T = Trace of Precipitation, MM = Missing Value Source: NWS Daily Summary

Daily Weather History Graph

Daily Weather History Graph

Search for Another Location

Airport or City:

Trip Planner

Search our weather history database for the weather conditions in past years. The results will help you decide how hot, cold, wet, or windy it might be!

Date:

Astronomy

Aug. 10, 2014 Rise Set
Actual Time 6:22 AM EDT 8:11 PM EDT
Civil Twilight 5:54 AM EDT 8:39 PM EDT
Nautical Twilight 5:19 AM EDT 9:13 PM EDT
Astronomical Twilight 4:42 AM EDT 9:50 PM EDT
Moon 7:58 PM EDT (8/10) 6:11 AM EDT (8/10)
Length of Visible Light 14h 45m
Length of Day
13h 48m
Full, 100% of the Moon is Illuminated
Aug 10
Full
Aug 10
Full
Aug 17
Last Quarter
Aug 25
New
Sep 2
First Quarter

Hourly Weather History & Observations

Time (EDT) Temp. Heat Index Dew Point Humidity Pressure Visibility Wind Dir Wind Speed Gust Speed Precip Events Conditions
12:15 AM 60.8 °F - 60.8 °F 100% 30.14 in 5.0 mi Calm Calm - N/A   Mostly Cloudy
12:35 AM 60.8 °F - 57.2 °F 88% 30.14 in 0.8 mi Calm Calm - N/A   Mostly Cloudy
12:55 AM 59.0 °F - 57.2 °F 94% 30.13 in 1.0 mi Calm Calm - N/A   Mostly Cloudy
1:15 AM 59.0 °F - 57.2 °F 94% 30.13 in 0.8 mi Calm Calm - N/A   Mist
1:35 AM 59.0 °F - 57.2 °F 94% 30.13 in 0.5 mi Calm Calm - N/A Fog Fog
1:55 AM 57.2 °F - 57.2 °F 100% 30.12 in 0.5 mi Calm Calm - N/A Fog Fog
2:15 AM 59.0 °F - 57.2 °F 94% 30.12 in 1.0 mi Calm Calm - N/A   Mist
2:35 AM 57.2 °F - 57.2 °F 100% 30.12 in 1.0 mi Calm Calm - N/A   Mist
2:55 AM 59.0 °F - 57.2 °F 94% 30.12 in 2.0 mi Calm Calm - N/A   Mostly Cloudy
3:15 AM 57.2 °F - 57.2 °F 100% 30.11 in 1.8 mi Calm Calm - N/A   Mostly Cloudy
3:35 AM 57.2 °F - 57.2 °F 100% 30.11 in 2.5 mi Calm Calm - N/A   Scattered Clouds
3:55 AM 57.2 °F - 55.4 °F 94% 30.11 in 0.5 mi Calm Calm - N/A Fog Fog
4:15 AM 57.2 °F - 57.2 °F 100% 30.11 in 0.8 mi Calm Calm - N/A   Mist
4:35 AM 57.2 °F - 57.2 °F 100% 30.10 in 0.2 mi Calm Calm - N/A Fog Fog
4:55 AM 57.2 °F - 55.4 °F 94% 30.11 in 0.2 mi Calm Calm - N/A Fog Fog
5:15 AM 57.2 °F - 57.2 °F 100% 30.12 in 2.0 mi Calm Calm - N/A   Clear
5:35 AM 57.2 °F - 55.4 °F 94% 30.12 in 2.5 mi Calm Calm - N/A   Clear
5:55 AM 55.4 °F - 55.4 °F 100% 30.12 in 1.0 mi Calm Calm - N/A   Mist
6:15 AM 57.2 °F - 55.4 °F 94% 30.12 in 1.2 mi Calm Calm - N/A   Mist
6:35 AM 55.4 °F - 55.4 °F 100% 30.12 in 0.2 mi Calm Calm - N/A Fog Fog
6:55 AM 57.2 °F - 57.2 °F 100% 30.13 in 0.2 mi Calm Calm - N/A Fog Fog
7:15 AM 59.0 °F - 57.2 °F 94% 30.13 in 2.5 mi Calm Calm - N/A   Clear
7:35 AM 60.8 °F - 60.8 °F 100% 30.14 in 4.0 mi Calm Calm - N/A   Clear
7:55 AM 64.4 °F - 62.6 °F 94% 30.15 in 4.0 mi Calm Calm - N/A   Clear
8:15 AM 64.4 °F - 62.6 °F 94% 30.15 in 5.0 mi Calm Calm - N/A   Clear
8:35 AM 66.2 °F - 62.6 °F 88% 30.15 in 7.0 mi Calm Calm - N/A   Clear
8:55 AM 69.8 °F - 64.4 °F 83% 30.15 in 7.0 mi Calm Calm - N/A   Mostly Cloudy
9:15 AM 71.6 °F - 64.4 °F 78% 30.15 in 10.0 mi Calm Calm - N/A   Mostly Cloudy
9:35 AM 71.6 °F - 64.4 °F 78% 30.15 in 10.0 mi Calm Calm - N/A   Scattered Clouds
9:55 AM 73.4 °F - 64.4 °F 73% 30.14 in 10.0 mi Calm Calm - N/A   Clear
10:15 AM 75.2 °F - 64.4 °F 69% 30.14 in 10.0 mi SW 3.5 mph - N/A   Clear
10:35 AM 75.2 °F - 64.4 °F 69% 30.15 in 10.0 mi Calm Calm - N/A   Scattered Clouds
10:55 AM 75.2 °F - 62.6 °F 65% 30.15 in 10.0 mi South 3.5 mph - N/A   Scattered Clouds
11:15 AM 78.8 °F - 60.8 °F 54% 30.15 in 10.0 mi Calm Calm - N/A   Clear
11:35 AM 78.8 °F - 62.6 °F 57% 30.14 in 10.0 mi ENE 5.8 mph - N/A   Clear
11:55 AM 78.8 °F - 62.6 °F 57% 30.14 in 10.0 mi ESE 3.5 mph - N/A   Scattered Clouds
12:15 PM 80.6 °F 81.8 °F 62.6 °F 54% 30.14 in 10.0 mi ESE 6.9 mph - N/A   Clear
12:35 PM 80.6 °F 81.8 °F 62.6 °F 54% 30.14 in 10.0 mi ESE 5.8 mph - N/A   Scattered Clouds
12:55 PM 80.6 °F 81.8 °F 62.6 °F 54% 30.14 in 10.0 mi ESE 6.9 mph - N/A   Scattered Clouds
1:15 PM 80.6 °F 81.8 °F 62.6 °F 54% 30.14 in 10.0 mi Calm Calm - N/A   Scattered Clouds
1:35 PM 78.8 °F - 64.4 °F 61% 30.14 in 10.0 mi South 3.5 mph - N/A   Mostly Cloudy
1:55 PM 82.4 °F 83.4 °F 62.6 °F 51% 30.13 in 10.0 mi SSE 5.8 mph - N/A   Scattered Clouds
2:15 PM 80.6 °F 81.8 °F 62.6 °F 54% 30.13 in 10.0 mi SSW 3.5 mph - N/A   Mostly Cloudy
2:35 PM 80.6 °F 81.8 °F 62.6 °F 54% 30.13 in 10.0 mi SSE 4.6 mph - N/A   Mostly Cloudy
2:55 PM 82.4 °F 83.4 °F 62.6 °F 51% 30.12 in 10.0 mi SSW 3.5 mph - N/A   Scattered Clouds
3:15 PM 82.4 °F 83.4 °F 62.6 °F 51% 30.11 in 10.0 mi SE 4.6 mph - N/A   Mostly Cloudy
3:35 PM 82.4 °F 83.4 °F 62.6 °F 51% 30.11 in 10.0 mi East 5.8 mph - N/A   Mostly Cloudy
3:55 PM 84.2 °F 85.0 °F 62.6 °F 48% 30.10 in 10.0 mi East 3.5 mph - N/A   Overcast
4:15 PM 82.4 °F 82.9 °F 60.8 °F 48% 30.09 in 10.0 mi ENE 4.6 mph - N/A   Mostly Cloudy
4:35 PM 84.2 °F 84.4 °F 60.8 °F 45% 30.09 in 10.0 mi Calm Calm - N/A   Clear
4:55 PM 82.4 °F 83.4 °F 62.6 °F 51% 30.08 in 10.0 mi ESE 3.5 mph - N/A   Clear
5:15 PM 82.4 °F 83.4 °F 62.6 °F 51% 30.08 in 10.0 mi East 4.6 mph - N/A   Scattered Clouds
5:35 PM 82.4 °F 83.4 °F 62.6 °F 51% 30.08 in 10.0 mi ESE 3.5 mph - N/A   Clear
5:55 PM 80.6 °F 82.3 °F 64.4 °F 58% 30.08 in 10.0 mi ESE 3.5 mph - N/A   Clear
6:15 PM 78.8 °F - 64.4 °F 61% 30.08 in 10.0 mi Calm Calm - N/A   Clear
6:35 PM 75.2 °F - 66.2 °F 73% 30.07 in 10.0 mi Calm Calm - N/A   Clear
6:55 PM 75.2 °F - 66.2 °F 73% 30.08 in 10.0 mi Calm Calm - N/A   Clear
7:35 PM 75.2 °F - 66.2 °F 73% 30.08 in 10.0 mi Calm Calm - N/A   Scattered Clouds
7:55 PM 73.4 °F - 66.2 °F 78% 30.08 in 10.0 mi Calm Calm - N/A   Clear
8:15 PM 73.4 °F - 66.2 °F 78% 30.08 in 10.0 mi SSE 3.5 mph - N/A   Clear
8:35 PM 71.6 °F - 66.2 °F 83% 30.08 in 10.0 mi Calm Calm - N/A   Scattered Clouds
8:55 PM 71.6 °F - 64.4 °F 78% 30.09 in 10.0 mi Calm Calm - N/A   Mostly Cloudy
9:15 PM 71.6 °F - 64.4 °F 78% 30.09 in 10.0 mi SSE 3.5 mph - N/A   Scattered Clouds
9:35 PM 71.6 °F - 64.4 °F 78% 30.10 in 10.0 mi Calm Calm - N/A   Mostly Cloudy
9:55 PM 71.6 °F - 64.4 °F 78% 30.10 in 10.0 mi Calm Calm - N/A   Mostly Cloudy
10:15 PM 66.2 °F - 64.4 °F 94% 30.11 in 7.0 mi Calm Calm - N/A   Scattered Clouds
10:35 PM 66.2 °F - 64.4 °F 94% 30.11 in 10.0 mi Calm Calm - N/A   Clear
10:55 PM 64.4 °F - 62.6 °F 94% 30.12 in 7.0 mi Calm Calm - N/A   Clear
11:15 PM 64.4 °F - 62.6 °F 94% 30.12 in 5.0 mi Calm Calm - N/A   Mostly Cloudy
11:35 PM 66.2 °F - 64.4 °F 94% 30.12 in 7.0 mi Calm Calm - N/A   Overcast
11:55 PM 66.2 °F - 64.4 °F 94% 30.12 in 10.0 mi Calm Calm - N/A   Overcast